[[{"header":{"parameterUnit":"m.s-1","parameterCategory":2,"la1":30.2992,"la2":30.254,"lo1":-89.0895,"lo2":-89.0443,"dy":0.0025,"dx":0.0025,"nx":19,"ny":19,"refTime":"2026-03-23T09:00:00:Z","depth":"0","parameterNumber":2,"parameterNumberName":"U-component_of_CURRENTS"},"data":[0,0,0,0.431,0.4313,0.4438,0.4438,0.4641,0.4643,0,0,0,0,0,0,0,0,0,0,0,0.4259,0.4261,0.431,0.4313,0.4438,0.4438,0.464,0.4643,0,0,0,0,0,0,0,0,0,0,0,0.4259,0.426,0.4262,0.4314,0.4438,0.4438,0.464,0.4532,0,0,0,0,0,0,0,0,0,0,0.4404,0.4346,0.426,0.4262,0.4315,0.4438,0.4438,0.4526,0.4538,0.4602,0,0.463,0,0.4655,0.4659,0.466,0,0,0,0.4298,0.4335,0.4385,0.4262,0.4316,0.4438,0.4377,0.4532,0.4547,0.4619,0.4633,0.4641,0.4658,0.4661,0.4662,0.4946,0.4948,0,0,0.4291,0.4268,0.4375,0.4394,0.4363,0.4373,0.4381,0.454,0.4554,0.4634,0.4645,0.4662,0.4662,0.4664,0.4945,0.4947,0,0,0,0.4282,0.4263,0.4307,0.4386,0.4413,0.4377,0.4387,0.4546,0.4566,0.4648,0.4664,0.4664,0.4666,0.4944,0.4946,0.5051,0,0,0,0.4277,0.426,0.4304,0.429,0.441,0.4474,0.4388,0.4554,0.4573,0.4663,0.4664,0.4669,0.4942,0.4945,0.5045,0.5086,0,0,0,0.4251,0.4257,0.4278,0.4289,0.4352,0.4472,0.4499,0.4557,0.4585,0.466,0.4669,0.4941,0.4944,0.5039,0.5077,0.5038,0,0,0,0.4213,0.428,0.4277,0.4373,0.4351,0.4515,0.4497,0.4602,0.4671,0.4665,0.4942,0.4946,0.5038,0.5072,0.5034,0.4795,0.4792,0,0,0.4282,0.4287,0.4351,0.4353,0.4517,0.4496,0.4676,0.4735,0.4742,0.4887,0.4894,0.5047,0.5077,0.5037,0.4978,0.4969,0,0,0,0.4365,0.4395,0.4453,0.454,0.4649,0.4759,0.481,0.4842,0.4952,0.4802,0.5082,0.5098,0.5068,0.4918,0.4913,0.4713,0.496,0.496,0.496,0.4378,0.4458,0.4572,0.4688,0.4806,0.4942,0.5033,0.5089,0.5081,0.514,0.521,0.5291,0.5138,0.513,0.4932,0.5242,0.5242,0.5243,0.5243,0.4441,0.4503,0.4628,0.4758,0.4918,0.5068,0.5255,0.5269,0.5375,0.5349,0.5312,0.5072,0.5129,0.4919,0.525,0.5249,0.5248,0.5247,0.5247,0.4377,0.4438,0.451,0.4703,0.4911,0.5115,0.5268,0.5407,0.5446,0.5492,0.5214,0.5208,0.4989,0.5426,0.5426,0.5426,0.5426,0.5426,0.5426,0.4297,0.4389,0.445,0.4661,0.4771,0.4985,0.5262,0.5334,0.5332,0.5306,0.5302,0.4992,0.5344,0.5298,0.5428,0.5427,0.5427,0.5427,0.5427,0.4274,0.4275,0.4345,0.442,0.4663,0.4688,0.4998,0.5044,0.5126,0.5049,0.4813,0.5172,0.509,0.509,0.5037,0.5091,0.5091,0.5091,0.5091,0.4216,0.4243,0.4253,0.4306,0.4436,0.4554,0.4405,0.4475,0.4527,0.4451,0.4571,0.4472,0.4494,0.4373,0.439,0.4322,0.4194,0.4193,0.4192,0.4211,0.4211,0.4153,0.4193,0.4316,0.4302,0.3974,0.3707,0.3877,0.4146,0.4351,0.4389,0.4242,0.4293,0.4102,0.4142,0.403,0,0]},{"header":{"parameterUnit":"m.s-1","parameterCategory":2,"la1":30.2992,"la2":30.254,"lo1":-89.0895,"lo2":-89.0443,"dy":0.0025,"dx":0.0025,"nx":19,"ny":19,"refTime":"2026-03-23T09:00:00:Z","depth":"0","parameterNumber":3,"parameterNumberName":"V-component_of_CURRENTS"},"data":[0,0,0,0.0427,0.0428,0.0462,0.0462,0.0462,0.0462,0,0,0,0,0,0,0,0,0,0,0,0.0412,0.0412,0.0427,0.0428,0.0462,0.0462,0.0462,0.0462,0,0,0,0,0,0,0,0,0,0,0,0.0412,0.0412,0.0413,0.0428,0.0462,0.0462,0.0462,0.0446,0,0,0,0,0,0,0,0,0,0,0.0418,0.0423,0.0412,0.0413,0.0429,0.0462,0.0462,0.0445,0.0447,0.0437,0,0.0447,0,0.0459,0.0462,0.0462,0,0,0,0.0421,0.0422,0.0423,0.0413,0.0429,0.0462,0.0445,0.0446,0.0448,0.0439,0.0447,0.0448,0.0459,0.0462,0.0462,0.057,0.0572,0,0,0.0419,0.0424,0.0422,0.0424,0.0443,0.0444,0.0446,0.0448,0.0455,0.0447,0.0448,0.0459,0.0462,0.0462,0.0569,0.0571,0,0,0,0.0419,0.0423,0.0425,0.0423,0.0435,0.0445,0.0447,0.0455,0.0454,0.0448,0.0459,0.0462,0.0462,0.0568,0.057,0.0689,0,0,0,0.0417,0.0423,0.0424,0.0427,0.0435,0.0454,0.0455,0.0453,0.0454,0.0459,0.0462,0.0462,0.0566,0.0569,0.0683,0.0781,0,0,0,0.041,0.0422,0.0426,0.0427,0.0445,0.0455,0.0454,0.0454,0.0461,0.0462,0.0462,0.0566,0.0568,0.0677,0.077,0.0869,0,0,0,0.0412,0.0455,0.0426,0.0486,0.0445,0.0514,0.0454,0.0493,0.0502,0.0462,0.0567,0.057,0.0675,0.0763,0.0862,0.099,0.1032,0,0,0.0473,0.0463,0.0501,0.0477,0.0557,0.0508,0.0601,0.0574,0.0543,0.0558,0.0561,0.0685,0.0769,0.0867,0.1157,0.1194,0,0,0,0.0526,0.0563,0.0581,0.062,0.0635,0.068,0.0649,0.066,0.0694,0.0564,0.0711,0.0762,0.0819,0.0882,0.0912,0.0691,0.0583,0.0583,0.0582,0.0642,0.0649,0.0732,0.0752,0.0785,0.08,0.0852,0.0865,0.0785,0.0837,0.0875,0.1062,0.1131,0.1156,0.0926,0.087,0.0871,0.0871,0.0872,0.0792,0.0847,0.0862,0.0948,0.0958,0.1026,0.1064,0.1041,0.1135,0.1034,0.1081,0.1027,0.1196,0.0939,0.088,0.0878,0.0877,0.0876,0.0876,0.088,0.0903,0.0959,0.1074,0.1174,0.1192,0.1373,0.1345,0.1289,0.1348,0.1389,0.1387,0.1147,0.1349,0.135,0.1351,0.1352,0.1352,0.1353,0.0937,0.0988,0.1097,0.122,0.1311,0.1462,0.1579,0.1673,0.1675,0.1582,0.1581,0.121,0.1209,0.1173,0.1367,0.1364,0.1362,0.1361,0.136,0.1037,0.1048,0.1214,0.1322,0.1575,0.183,0.1925,0.2118,0.2127,0.2147,0.1584,0.1699,0.1683,0.1657,0.1634,0.1935,0.1935,0.1935,0.1935,0.1084,0.111,0.1321,0.151,0.1774,0.1995,0.2385,0.2473,0.2153,0.1877,0.1691,0.1553,0.1539,0.1501,0.148,0.1446,0.1693,0.1692,0.1691,0.1161,0.1211,0.1371,0.1557,0.1858,0.2212,0.2588,0.265,0.2043,0.1648,0.1359,0.1369,0.112,0.1117,0.1012,0.1,0.0928,0,0]}],[{"header":{"parameterUnit":"m.s-1","parameterCategory":2,"la1":30.2992,"la2":30.254,"lo1":-89.0895,"lo2":-89.0443,"dy":0.0025,"dx":0.0025,"nx":19,"ny":19,"refTime":"2026-03-23T09:00:00:Z","depth":"2","parameterNumber":2,"parameterNumberName":"U-component_of_CURRENTS"},"data":[0,0,0,0.3433,0.3434,0.3531,0.3532,0.371,0.3712,0,0,0,0,0,0,0,0,0,0,0,0.3371,0.337,0.3433,0.3435,0.3531,0.3532,0.371,0.3712,0,0,0,0,0,0,0,0,0,0,0,0.3371,0.337,0.337,0.3435,0.3531,0.3532,0.371,0.3625,0,0,0,0,0,0,0,0,0,0,0.3526,0.3482,0.3371,0.337,0.3435,0.3531,0.3532,0.3621,0.3631,0.3679,0,0.3663,0,0.3701,0.3724,0.3725,0,0,0,0.3445,0.3474,0.3477,0.337,0.3436,0.3531,0.3491,0.3626,0.3637,0.3692,0.3666,0.3673,0.3704,0.3725,0.3726,0.3962,0.3963,0,0,0.344,0.3422,0.3469,0.3483,0.3424,0.3488,0.3494,0.3632,0.3643,0.3667,0.3678,0.3707,0.3727,0.3728,0.396,0.3962,0,0,0,0.3417,0.3418,0.3418,0.3475,0.3494,0.349,0.3497,0.3637,0.3629,0.368,0.3709,0.3728,0.373,0.3959,0.3961,0.4034,0,0,0,0.3415,0.3405,0.3415,0.3411,0.3489,0.3568,0.3498,0.3618,0.3636,0.3709,0.3728,0.3732,0.3958,0.396,0.4029,0.4104,0,0,0,0.3373,0.3403,0.3395,0.3409,0.3447,0.3565,0.3567,0.3623,0.3655,0.3725,0.3732,0.3957,0.396,0.4024,0.4096,0.4102,0,0,0,0.3379,0.3402,0.3394,0.3428,0.3445,0.3498,0.3567,0.3642,0.3698,0.3729,0.3958,0.3961,0.4023,0.409,0.4097,0.3817,0.3814,0,0,0.3422,0.3407,0.3426,0.3422,0.3512,0.3488,0.3609,0.3718,0.3768,0.3915,0.392,0.403,0.4095,0.4101,0.3984,0.3975,0,0,0,0.345,0.3425,0.3463,0.3493,0.3546,0.365,0.3693,0.3778,0.3958,0.3814,0.4069,0.4109,0.4109,0.3932,0.3927,0.3974,0.3974,0.3974,0.3974,0.3362,0.3419,0.3506,0.3575,0.3604,0.3748,0.3853,0.3973,0.3991,0.4116,0.4195,0.4296,0.411,0.4102,0.4202,0.4202,0.4203,0.4203,0.4203,0.3368,0.3423,0.3506,0.3609,0.3742,0.3821,0.4037,0.4122,0.433,0.434,0.4331,0.4053,0.4099,0.421,0.4208,0.4207,0.4207,0.4206,0.4206,0.3278,0.3362,0.3423,0.3568,0.3739,0.3904,0.4067,0.4244,0.4419,0.4473,0.4232,0.4226,0.4313,0.4451,0.4451,0.4452,0.4452,0.4452,0.4453,0.3209,0.3312,0.3392,0.3531,0.3643,0.3751,0.4116,0.4232,0.4318,0.4331,0.4326,0.4379,0.4371,0.4329,0.4459,0.4458,0.4457,0.4456,0.4456,0.3165,0.3172,0.3265,0.336,0.3533,0.3472,0.3819,0.3955,0.4155,0.4086,0.4202,0.4206,0.4151,0.415,0.4103,0.4168,0.4168,0.4168,0.4168,0.3088,0.3123,0.3187,0.3275,0.3294,0.3339,0.3325,0.342,0.3667,0.3701,0.3721,0.3577,0.3598,0.3506,0.352,0.3458,0.3355,0.3354,0.3353,0.3068,0.3086,0.3089,0.3158,0.3195,0.3095,0.2902,0.2779,0.2962,0.3325,0.3622,0.4105,0.3942,0.3957,0.3852,0.3861,0.3775,0,0]},{"header":{"parameterUnit":"m.s-1","parameterCategory":2,"la1":30.2992,"la2":30.254,"lo1":-89.0895,"lo2":-89.0443,"dy":0.0025,"dx":0.0025,"nx":19,"ny":19,"refTime":"2026-03-23T09:00:00:Z","depth":"2","parameterNumber":3,"parameterNumberName":"V-component_of_CURRENTS"},"data":[0,0,0,0.023,0.023,0.0229,0.0229,0.0185,0.0185,0,0,0,0,0,0,0,0,0,0,0,0.022,0.022,0.023,0.023,0.0229,0.0229,0.0185,0.0185,0,0,0,0,0,0,0,0,0,0,0,0.022,0.022,0.022,0.023,0.0229,0.0229,0.0185,0.0194,0,0,0,0,0,0,0,0,0,0,0.0199,0.0216,0.022,0.022,0.023,0.0229,0.0229,0.0195,0.0193,0.0177,0,0.0179,0,0.019,0.0182,0.0182,0,0,0,0.0218,0.0217,0.0205,0.022,0.023,0.0229,0.0226,0.0194,0.0193,0.0175,0.0179,0.0178,0.0189,0.0182,0.0182,0.0253,0.0254,0,0,0.0218,0.0229,0.0206,0.0204,0.0232,0.0226,0.0226,0.0193,0.0199,0.0178,0.0177,0.0188,0.0182,0.0181,0.0252,0.0253,0,0,0,0.0226,0.0229,0.0219,0.0205,0.0214,0.0227,0.0227,0.02,0.0193,0.0177,0.0188,0.0181,0.0181,0.0251,0.0252,0.0365,0,0,0,0.0226,0.0235,0.0219,0.0227,0.0215,0.0218,0.0234,0.0195,0.0192,0.0188,0.0181,0.018,0.0249,0.0251,0.036,0.0461,0,0,0,0.0219,0.0235,0.0232,0.0227,0.0232,0.0218,0.021,0.0195,0.02,0.0182,0.018,0.0249,0.0251,0.0355,0.0451,0.0541,0,0,0,0.0233,0.0262,0.0233,0.0283,0.0233,0.0263,0.0211,0.0227,0.022,0.0181,0.025,0.0252,0.0353,0.0444,0.0535,0.054,0.0571,0,0,0.0282,0.0268,0.0303,0.0277,0.0334,0.0262,0.0328,0.029,0.0256,0.0252,0.0253,0.0362,0.045,0.054,0.069,0.0716,0,0,0,0.0328,0.036,0.0372,0.0399,0.0387,0.0412,0.0358,0.0361,0.0383,0.0266,0.0383,0.0437,0.0489,0.0478,0.05,0.0264,0.0264,0.0264,0.0264,0.0424,0.043,0.0497,0.0509,0.0524,0.0509,0.0539,0.0535,0.0456,0.0507,0.0542,0.0715,0.0704,0.0721,0.0529,0.053,0.053,0.053,0.0531,0.0555,0.0593,0.0613,0.0679,0.067,0.071,0.0734,0.0708,0.078,0.0691,0.0733,0.0616,0.0751,0.054,0.0538,0.0537,0.0536,0.0535,0.0535,0.0622,0.0633,0.0684,0.078,0.0858,0.0869,0.1027,0.0989,0.0937,0.0981,0.095,0.0947,0.0797,0.0989,0.099,0.0991,0.0992,0.0992,0.0993,0.0647,0.0695,0.0797,0.09,0.098,0.1112,0.1223,0.1287,0.1243,0.1128,0.1126,0.087,0.0855,0.0825,0.1006,0.1004,0.1002,0.1001,0.1,0.0713,0.0734,0.0901,0.0999,0.1225,0.1446,0.1527,0.1625,0.1621,0.1582,0.1194,0.1185,0.1159,0.1139,0.1116,0.1363,0.1363,0.1363,0.1363,0.0742,0.077,0.1001,0.1191,0.1425,0.1605,0.1905,0.1854,0.1637,0.1398,0.1396,0.1268,0.1252,0.1223,0.1201,0.1174,0.1437,0.1437,0.1437,0.0804,0.0871,0.1041,0.1235,0.1511,0.181,0.2055,0.1945,0.1528,0.1438,0.1387,0.1372,0.1169,0.1151,0.1085,0.1058,0.1007,0,0]}],[{"header":{"parameterUnit":"m.s-1","parameterCategory":2,"la1":30.2992,"la2":30.254,"lo1":-89.0895,"lo2":-89.0443,"dy":0.0025,"dx":0.0025,"nx":19,"ny":19,"refTime":"2026-03-23T09:00:00:Z","depth":"4","parameterNumber":2,"parameterNumberName":"U-component_of_CURRENTS"},"data":[0,0,0,0.1667,0.167,0.1815,0.1815,0.1962,0.1963,0,0,0,0,0,0,0,0,0,0,0,0.1639,0.164,0.1667,0.167,0.1815,0.1815,0.1962,0.1963,0,0,0,0,0,0,0,0,0,0,0,0.1638,0.164,0.1641,0.1671,0.1814,0.1815,0.1961,0.1865,0,0,0,0,0,0,0,0,0,0,0.173,0.171,0.1639,0.1641,0.1672,0.1814,0.1815,0.186,0.1871,0.1882,0,0.1919,0,0.193,0.1971,0.1971,0,0,0,0.1681,0.1702,0.1731,0.1642,0.1673,0.1814,0.1753,0.1866,0.1878,0.1895,0.1921,0.1927,0.1933,0.1972,0.1972,0.211,0.211,0,0,0.1673,0.1672,0.1723,0.1738,0.1729,0.1748,0.1757,0.1874,0.1899,0.1922,0.193,0.1935,0.1972,0.1973,0.2109,0.211,0,0,0,0.1643,0.1666,0.1694,0.1733,0.1754,0.1752,0.1762,0.1894,0.1902,0.1932,0.1937,0.1973,0.1974,0.2108,0.2109,0.218,0,0,0,0.1639,0.1647,0.169,0.1691,0.1753,0.1831,0.178,0.1894,0.1907,0.1936,0.1973,0.1976,0.2108,0.2109,0.2177,0.2166,0,0,0,0.1628,0.1646,0.1666,0.1691,0.1745,0.183,0.1845,0.1898,0.1909,0.1971,0.1976,0.2107,0.2109,0.2174,0.2162,0.2283,0,0,0,0.1615,0.1612,0.1667,0.1695,0.1743,0.1815,0.1845,0.1936,0.1997,0.1974,0.2108,0.2109,0.2173,0.216,0.2279,0.1954,0,0,0,0.158,0.1609,0.1626,0.1676,0.1713,0.1795,0.1886,0.1992,0.2017,0.2067,0.2071,0.2178,0.2162,0.2282,0.2043,0,0,0,0,0.1595,0.161,0.1638,0.1688,0.1756,0.1845,0.1958,0.2017,0.2126,0.2056,0.2188,0.2175,0.225,0.2048,0.2116,0.2116,0.2116,0.2116,0.2116,0.1529,0.1576,0.1588,0.1666,0.1733,0.1903,0.2001,0.2099,0.2154,0.2223,0.2243,0.2385,0.2174,0.2275,0.2275,0.2275,0.2276,0.2276,0.2276,0.1443,0.1448,0.1531,0.1561,0.1691,0.1802,0.2012,0.2129,0.2328,0.2302,0.2375,0.2144,0.2283,0.2282,0.2281,0.228,0.2279,0.2279,0.2279,0.1397,0.1387,0.1433,0.1468,0.1582,0.1769,0.1923,0.2151,0.2339,0.2448,0.2318,0.2449,0.2436,0.2551,0.2551,0.2552,0.2552,0.2553,0.2553,0.1301,0.1326,0.1335,0.1397,0.1446,0.1603,0.1929,0.2079,0.2345,0.234,0.2512,0.2478,0.2469,0.2453,0.2561,0.2559,0.2558,0.2558,0.2557,0.1178,0.1256,0.123,0.1261,0.135,0.1445,0.1751,0.1999,0.2195,0.2259,0.2297,0.2308,0.2258,0.2256,0.2229,0.2275,0.2271,0.2267,0,0.1116,0.1145,0.1128,0.1125,0.1176,0.1343,0.1516,0.1742,0.1995,0.194,0.2216,0.225,0.2258,0.2191,0.2183,0.2143,0,0,0,0.0999,0.1044,0.0996,0.1047,0.1073,0.1302,0.1561,0.1604,0.1937,0.198,0.2173,0.2198,0.2326,0.2584,0.2536,0.2525,0.2496,0,0]},{"header":{"parameterUnit":"m.s-1","parameterCategory":2,"la1":30.2992,"la2":30.254,"lo1":-89.0895,"lo2":-89.0443,"dy":0.0025,"dx":0.0025,"nx":19,"ny":19,"refTime":"2026-03-23T09:00:00:Z","depth":"4","parameterNumber":3,"parameterNumberName":"V-component_of_CURRENTS"},"data":[0,0,0,0.0164,0.0164,0.0167,0.0167,0.0109,0.0109,0,0,0,0,0,0,0,0,0,0,0,0.016,0.016,0.0164,0.0164,0.0167,0.0167,0.011,0.0109,0,0,0,0,0,0,0,0,0,0,0,0.016,0.016,0.016,0.0164,0.0168,0.0167,0.011,0.0121,0,0,0,0,0,0,0,0,0,0,0.0124,0.0141,0.016,0.016,0.0164,0.0168,0.0167,0.0122,0.012,0.0093,0,0.0099,0,0.0106,0.0104,0.0104,0,0,0,0.0156,0.0143,0.0137,0.016,0.0164,0.0168,0.0164,0.0121,0.0119,0.009,0.0099,0.0097,0.0105,0.0104,0.0104,0.0115,0.0116,0,0,0.0156,0.0163,0.0139,0.0136,0.0171,0.0164,0.0164,0.012,0.0123,0.0098,0.0096,0.0104,0.0103,0.0103,0.0115,0.0115,0,0,0,0.0161,0.0163,0.016,0.0138,0.0145,0.0164,0.0164,0.0125,0.0122,0.0095,0.0103,0.0103,0.0102,0.0114,0.0115,0.0177,0,0,0,0.016,0.0166,0.016,0.0165,0.0147,0.0146,0.017,0.0125,0.0121,0.0104,0.0103,0.0102,0.0113,0.0114,0.0174,0.0225,0,0,0,0.0159,0.0166,0.0168,0.0165,0.017,0.0147,0.0143,0.0125,0.0126,0.0104,0.0101,0.0113,0.0114,0.0171,0.022,0.0241,0,0,0,0.0164,0.0187,0.0168,0.0211,0.017,0.02,0.0143,0.0153,0.0142,0.0103,0.0113,0.0115,0.017,0.0216,0.0238,0.0242,0,0,0,0.0199,0.0192,0.0222,0.0205,0.024,0.0199,0.0233,0.0186,0.0154,0.0119,0.012,0.0175,0.0219,0.024,0.0331,0,0,0,0,0.0238,0.0266,0.0271,0.0295,0.0289,0.0294,0.025,0.0225,0.0206,0.0156,0.0188,0.0215,0.0226,0.022,0.0122,0.0122,0.0122,0.0122,0.0121,0.0304,0.0316,0.0365,0.0378,0.0392,0.0356,0.0347,0.031,0.0255,0.0264,0.0275,0.035,0.0348,0.0271,0.0271,0.0272,0.0272,0.0272,0.0272,0.0386,0.0418,0.0447,0.0498,0.0485,0.0517,0.0461,0.0415,0.0386,0.0345,0.0351,0.0298,0.0279,0.0277,0.0276,0.0276,0.0275,0.0275,0.0274,0.0416,0.0429,0.0484,0.0565,0.0633,0.0622,0.0656,0.0578,0.0483,0.048,0.0458,0.0398,0.0382,0.0479,0.0479,0.0479,0.048,0.048,0.048,0.0405,0.0461,0.0541,0.064,0.0718,0.0786,0.0773,0.0733,0.0628,0.0555,0.051,0.042,0.0413,0.0394,0.0485,0.0484,0.0484,0.0483,0.0483,0.0437,0.0469,0.0586,0.0672,0.0842,0.0905,0.0906,0.0809,0.0766,0.068,0.0573,0.0567,0.0545,0.0536,0.0519,0.0651,0.0651,0.0652,0,0.0447,0.0474,0.0641,0.0781,0.0907,0.0966,0.0952,0.0895,0.0746,0.0738,0.0735,0.062,0.0612,0.059,0.0582,0.0566,0,0,0,0.0488,0.0534,0.0652,0.0794,0.0946,0.0947,0.0947,0.0895,0.0791,0.0721,0.0662,0.066,0.0582,0.0501,0.0453,0.0444,0.0411,0,0]}]]